Terminal Aerodrome Forecast
Issued by NWS

Home | Current Version | Previous Version | Text Only | Print | Product List | Glossary On
Versions: 1 2 3 4 5 6 7 8 9 10 11 12
000
FTUS46 KHNX 120500
TAFVIS
TAF
KVIS 120525Z 1206/1306 31009KT P6SM SKC
     FM121100 VRB04KT P6SM SKC
     FM121900 26005KT P6SM SKC
     FM130100 30008KT P6SM SKC=

USA.gov is the U.S. government's official web portal to all federal, state and local government web resources and services.